Port Heiden, AK

1:39 AM AKST on January 24, 2017 (GMT -0900)
Port Heiden

Weather History for PAPH - January, 2013

Change the Weather History Date:

Tuesday, January 15, 2013

  Actual Average Record
Temperature  
Mean Temperature 32 °F -  
Max Temperature 39 °F 29 °F 44 °F (2003)
Min Temperature 24 °F 20 °F -2 °F (2012)
Degree Days  
Heating Degree Days 34    
Moisture  
Dew Point 25 °F    
Average Humidity 76    
Maximum Humidity 93    
Minimum Humidity 55    
Precipitation  
Precipitation 0.04 in - - ()
Sea Level Pressure  
Sea Level Pressure 30.14 in    
Wind  
Wind Speed 8 mph (SE)    
Max Wind Speed 14 mph    
Max Gust Speed -    
Visibility 10 miles    
Events      
Averages and records for this station are not official NWS values.
T = Trace of Precipitation, MM = Missing Value Source: NWS Daily Summary

Daily Weather History Graph

Daily Weather History Graph

Search for Another Location

Airport or City:

Trip Planner

Search our weather history database for the weather conditions in past years. The results will help you decide how hot, cold, wet, or windy it might be!

Date:

Astronomy

Jan. 15, 2013 Rise Set
Actual Time 10:00 AM AKST 5:28 PM AKST
Civil Twilight 9:14 AM AKST 6:14 PM AKST
Nautical Twilight 8:25 AM AKST 7:02 PM AKST
Astronomical Twilight 7:40 AM AKST 7:48 PM AKST
Moon 11:06 AM AKST (1/15) 11:42 PM AKST (1/15)
Length of Visible Light 8h 59m
Length of Day
7h 27m
Waxing Crescent, 20% of the Moon is Illuminated
Jan 15
Waxing Crescent
Jan 18
First Quarter
Jan 26
Full
Feb 3
Last Quarter
Feb 9
New

Hourly Weather History & Observations

Time (AKST) Temp. Windchill Dew Point Humidity Pressure Visibility Wind Dir Wind Speed Gust Speed Precip Events Conditions
12:16 AM 24.8 °F 15.3 °F 17.6 °F 74% 30.10 in 10.0 mi NE 9.2 mph - N/A   Partly Cloudy
12:36 AM 26.6 °F 18.2 °F 19.4 °F 74% 30.11 in 10.0 mi NE 8.1 mph - N/A   Scattered Clouds
12:56 AM 26.6 °F 17.5 °F 21.2 °F 80% 30.11 in 10.0 mi NE 9.2 mph - N/A   Scattered Clouds
1:16 AM 26.6 °F 18.2 °F 21.2 °F 80% 30.11 in 10.0 mi NE 8.1 mph - N/A   Mostly Cloudy
1:36 AM 28.4 °F 22.2 °F 21.2 °F 74% 30.12 in 10.0 mi ENE 5.8 mph - N/A   Overcast
1:56 AM 28.4 °F 20.4 °F 21.2 °F 74% 30.13 in 10.0 mi ENE 8.1 mph - N/A   Overcast
2:16 AM 28.4 °F 19.7 °F 21.2 °F 74% 30.13 in 10.0 mi ENE 9.2 mph - N/A   Mostly Cloudy
2:36 AM 28.4 °F 20.4 °F 19.4 °F 69% 30.13 in 10.0 mi ENE 8.1 mph - N/A   Partly Cloudy
2:56 AM 26.6 °F 19.1 °F 19.4 °F 74% 30.14 in 10.0 mi NE 6.9 mph - N/A   Mostly Cloudy
3:16 AM 26.6 °F 19.1 °F 19.4 °F 74% 30.14 in 10.0 mi NE 6.9 mph - N/A   Partly Cloudy
3:36 AM 26.6 °F 18.2 °F 19.4 °F 74% 30.14 in 10.0 mi NE 8.1 mph - N/A   Mostly Cloudy
3:56 AM 26.6 °F 19.1 °F 19.4 °F 74% 30.15 in 10.0 mi ENE 6.9 mph - N/A   Overcast
4:16 AM 26.6 °F 19.1 °F 23.0 °F 86% 30.15 in 10.0 mi ENE 6.9 mph - N/A   Overcast
4:36 AM 26.6 °F 19.1 °F 21.2 °F 80% 30.14 in 10.0 mi NE 6.9 mph - N/A   Overcast
4:56 AM 26.6 °F 19.1 °F 21.2 °F 80% 30.16 in 10.0 mi NE 6.9 mph - N/A   Mostly Cloudy
5:16 AM 26.6 °F 20.0 °F 21.2 °F 80% 30.16 in 10.0 mi NE 5.8 mph - N/A   Mostly Cloudy
5:36 AM 26.6 °F 17.5 °F 21.2 °F 80% 30.15 in 10.0 mi NNE 9.2 mph - N/A   Overcast
5:56 AM 26.6 °F 18.2 °F 21.2 °F 80% 30.14 in 10.0 mi NE 8.1 mph - N/A   Overcast
6:16 AM 26.6 °F 20.0 °F 21.2 °F 80% 30.14 in 10.0 mi ENE 5.8 mph - N/A   Overcast
6:36 AM 26.6 °F 18.2 °F 23.0 °F 86% 30.14 in 10.0 mi NE 8.1 mph - N/A   Overcast
6:56 AM 26.6 °F 17.5 °F 19.4 °F 74% 30.14 in 10.0 mi ENE 9.2 mph - N/A   Overcast
7:16 AM 26.6 °F 19.1 °F 19.4 °F 74% 30.14 in 10.0 mi NE 6.9 mph - 0.01 in   Overcast
7:36 AM 26.6 °F 20.0 °F 19.4 °F 74% 30.15 in 10.0 mi NE 5.8 mph - 0.01 in   Overcast
7:56 AM 26.6 °F 21.2 °F 19.4 °F 74% 30.15 in 10.0 mi NE 4.6 mph - 0.01 in   Overcast
8:16 AM 28.4 °F 24.6 °F 21.2 °F 74% 30.15 in 10.0 mi East 3.5 mph - N/A   Overcast
8:36 AM 26.6 °F - 21.2 °F 80% 30.16 in 10.0 mi Calm Calm - 0.02 in   Overcast
8:56 AM 30.2 °F - 21.2 °F 69% 30.16 in 10.0 mi Calm Calm - 0.02 in   Overcast
9:16 AM 30.2 °F - 21.2 °F 69% 30.16 in 10.0 mi Calm Calm - N/A   Overcast
9:36 AM 30.2 °F 26.7 °F 24.8 °F 80% 30.16 in 10.0 mi SSE 3.5 mph - N/A   Mostly Cloudy
9:56 AM 30.2 °F 24.3 °F 24.8 °F 80% 30.16 in 10.0 mi SSE 5.8 mph - N/A   Partly Cloudy
10:16 AM 28.4 °F 20.4 °F 24.8 °F 86% 30.16 in 10.0 mi SSE 8.1 mph - N/A   Partly Cloudy
10:36 AM 30.2 °F 21.9 °F 24.8 °F 80% 30.16 in 10.0 mi SSE 9.2 mph - N/A   Mostly Cloudy
10:56 AM 30.2 °F 23.4 °F 21.2 °F 69% 30.16 in 10.0 mi SE 6.9 mph - N/A   Partly Cloudy
11:16 AM 30.2 °F 22.6 °F 21.2 °F 69% 30.17 in 10.0 mi SSE 8.1 mph - N/A   Clear
11:36 AM 32.0 °F 26.4 °F 24.8 °F 75% 30.16 in 10.0 mi SE 5.8 mph - N/A   Clear
12:16 PM 33.8 °F 27.7 °F 26.6 °F 75% 30.16 in 10.0 mi SSE 6.9 mph - N/A   Mostly Cloudy
12:36 PM 35.6 °F 27.5 °F 28.4 °F 75% 30.15 in 10.0 mi SSE 11.5 mph - N/A   Mostly Cloudy
12:56 PM 37.4 °F 28.9 °F 26.6 °F 65% 30.15 in 10.0 mi SE 13.8 mph - N/A   Mostly Cloudy
1:16 PM 35.6 °F 26.6 °F 28.4 °F 75% 30.14 in 10.0 mi SE 13.8 mph - N/A   Overcast
1:36 PM 37.4 °F 29.3 °F 28.4 °F 70% 30.13 in 10.0 mi SSE 12.7 mph - N/A   Overcast
1:56 PM 37.4 °F 29.3 °F 26.6 °F 65% 30.13 in 10.0 mi SSE 12.7 mph - N/A   Overcast
2:16 PM 37.4 °F 29.8 °F 28.4 °F 70% 30.12 in 10.0 mi SSE 11.5 mph - N/A   Overcast
2:36 PM 37.4 °F 29.8 °F 28.4 °F 70% 30.11 in 10.0 mi South 11.5 mph - N/A   Overcast
2:56 PM 39.2 °F 32.0 °F 28.4 °F 65% 30.11 in 10.0 mi South 11.5 mph - N/A   Overcast
3:16 PM 39.2 °F 31.6 °F 30.2 °F 70% 30.12 in 10.0 mi South 12.7 mph - N/A   Overcast
3:36 PM 39.2 °F 33.6 °F 28.4 °F 65% 30.12 in 10.0 mi South 8.1 mph - N/A   Overcast
3:56 PM 37.4 °F 30.8 °F 28.4 °F 70% 30.12 in 10.0 mi South 9.2 mph - N/A   Overcast
4:16 PM 37.4 °F 31.4 °F 28.4 °F 70% 30.13 in 10.0 mi South 8.1 mph - N/A   Overcast
4:36 PM 37.4 °F 30.3 °F 28.4 °F 70% 30.13 in 10.0 mi SSE 10.4 mph - N/A   Mostly Cloudy
4:56 PM 35.6 °F 28.0 °F 26.6 °F 70% 30.15 in 10.0 mi South 10.4 mph - N/A   Overcast
5:16 PM 35.6 °F 28.0 °F 26.6 °F 70% 30.15 in 10.0 mi South 10.4 mph - N/A   Overcast
5:36 PM 35.6 °F 28.6 °F 28.4 °F 75% 30.15 in 10.0 mi South 9.2 mph - N/A   Overcast
5:56 PM 35.6 °F 29.2 °F 28.4 °F 75% 30.15 in 10.0 mi South 8.1 mph - N/A   Overcast
6:16 PM 35.6 °F 29.2 °F 28.4 °F 75% 30.15 in 10.0 mi SSW 8.1 mph - N/A   Mostly Cloudy
6:36 PM 35.6 °F 29.9 °F 28.4 °F 75% 30.15 in 10.0 mi SW 6.9 mph - N/A   Mostly Cloudy
6:56 PM 33.8 °F 26.4 °F 26.6 °F 75% 30.15 in 10.0 mi WSW 9.2 mph - N/A   Overcast
7:16 PM 33.8 °F 25.3 °F 28.4 °F 81% 30.16 in 10.0 mi WSW 11.5 mph - N/A   Overcast
7:36 PM 33.8 °F 26.4 °F 28.4 °F 81% 30.15 in 10.0 mi SW 9.2 mph - N/A   Overcast
7:56 PM 33.8 °F 27.0 °F 28.4 °F 81% 30.15 in 10.0 mi SSW 8.1 mph - N/A   Overcast
8:16 PM 33.8 °F 26.4 °F 28.4 °F 81% 30.15 in 10.0 mi SSW 9.2 mph - N/A   Overcast
8:36 PM 33.8 °F 25.8 °F 28.4 °F 81% 30.15 in 10.0 mi SSW 10.4 mph - N/A   Overcast
8:56 PM 33.8 °F 25.8 °F 28.4 °F 81% 30.15 in 9.0 mi SW 10.4 mph - N/A   Overcast
9:16 PM 33.8 °F 25.8 °F 28.4 °F 81% 30.15 in 10.0 mi SW 10.4 mph - 0.01 in   Overcast
9:36 PM 33.8 °F 27.0 °F 26.6 °F 75% 30.15 in 10.0 mi SSW 8.1 mph - 0.01 in   Overcast
9:56 PM 33.8 °F 25.8 °F 28.4 °F 81% 30.16 in 10.0 mi SW 10.4 mph - 0.01 in   Overcast
10:16 PM 33.8 °F 27.0 °F 28.4 °F 81% 30.16 in 10.0 mi WSW 8.1 mph - N/A   Overcast
10:36 PM 32.0 °F 24.2 °F 28.4 °F 87% 30.17 in 9.0 mi SW 9.2 mph - N/A   Overcast
10:56 PM 32.0 °F 24.2 °F 26.6 °F 80% 30.17 in 1.2 mi SW 9.2 mph - N/A   Overcast
11:16 PM 30.2 °F 21.9 °F 28.4 °F 93% 30.17 in 0.8 mi SW 9.2 mph - 0.01 in   Overcast
11:36 PM 30.2 °F 20.2 °F 26.6 °F 86% 30.17 in 1.2 mi SW 12.7 mph - 0.01 in   Overcast
11:56 PM 30.2 °F 20.8 °F 26.6 °F 86% 30.17 in 1.5 mi SW 11.5 mph - 0.01 in   Overcast